TimeCDT,TemperatureF,Dew PointF,Humidity,Sea Level PressureIn,VisibilityMPH,Wind Direction,Wind SpeedMPH,Gust SpeedMPH,PrecipitationIn,Events,Conditions,WindDirDegrees,DateUTC
12:03 AM,75.2,68.0,78,29.66,10.0,SSW,5.8,-,N/A,,Overcast,200,2013-05-28 05:03:00
12:58 AM,74.8,67.8,79,29.65,10.0,SW,6.9,-,N/A,,Overcast,220,2013-05-28 05:58:00
1:53 AM,75.2,68.0,78,29.64,10.0,SSW,10.4,-,N/A,,Mostly Cloudy,200,2013-05-28 06:53:00
1:58 AM,74.3,68.0,81,29.61,10.0,SSW,11.5,-,N/A,,Mostly Cloudy,200,2013-05-28 06:58:00
2:08 AM,73.4,68.0,83,29.63,10.0,SSW,12.7,-,N/A,,Scattered Clouds,200,2013-05-28 07:08:00
2:58 AM,73.4,68.4,84,29.59,10.0,SSW,11.5,-,N/A,,Partly Cloudy,200,2013-05-28 07:58:00
3:58 AM,72.0,69.4,92,29.61,10.0,SSW,6.9,-,N/A,,Partly Cloudy,200,2013-05-28 08:58:00
4:58 AM,71.1,70.3,98,29.62,10.0,South,6.9,-,N/A,,Clear,190,2013-05-28 09:58:00
5:58 AM,70.7,70.2,98,29.64,10.0,North,2.3,-,N/A,,Partly Cloudy,350,2013-05-28 10:58:00
6:58 AM,68.9,68.9,100,29.66,10.0,North,3.5,-,N/A,,Clear,360,2013-05-28 11:58:00
7:43 AM,69.8,69.8,100,29.70,10.0,Variable,1.2,-,N/A,,Overcast,0,2013-05-28 12:43:00
7:58 AM,70.9,70.9,100,29.66,10.0,NE,2.3,-,N/A,,Overcast,50,2013-05-28 12:58:00
8:15 AM,71.6,71.6,100,29.70,10.0,East,2.3,-,N/A,,Light Drizzle,80,2013-05-28 13:15:00
8:58 AM,74.3,71.6,91,29.66,10.0,East,3.5,-,0.00,Rain,Light Rain,80,2013-05-28 13:58:00
9:39 AM,75.2,71.6,89,29.68,10.0,SE,6.9,-,N/A,,Overcast,140,2013-05-28 14:39:00
9:58 AM,76.5,70.9,83,29.65,10.0,South,5.8,-,0.00,,Overcast,180,2013-05-28 14:58:00
10:58 AM,78.3,71.4,79,29.64,10.0,South,12.7,-,N/A,,Overcast,180,2013-05-28 15:58:00
11:58 AM,78.6,71.2,78,29.65,10.0,South,8.1,-,N/A,,Overcast,180,2013-05-28 16:58:00
12:23 PM,80.6,71.6,74,29.67,10.0,South,12.7,-,N/A,,Mostly Cloudy,180,2013-05-28 17:23:00
12:58 PM,83.1,71.2,67,29.64,10.0,South,15.0,25.3,N/A,,Mostly Cloudy,180,2013-05-28 17:58:00
1:58 PM,83.5,70.5,65,29.63,10.0,SSW,13.8,-,N/A,,Scattered Clouds,210,2013-05-28 18:58:00
2:58 PM,87.3,69.8,56,29.62,8.0,South,13.8,-,N/A,,Scattered Clouds,190,2013-05-28 19:58:00
3:58 PM,87.4,69.3,55,29.62,10.0,South,13.8,-,N/A,,Partly Cloudy,170,2013-05-28 20:58:00
4:58 PM,86.4,70.9,60,29.58,10.0,South,24.2,31.1,N/A,,Clear,170,2013-05-28 21:58:00
5:58 PM,81.3,70.0,68,29.59,10.0,South,16.1,29.9,N/A,,Partly Cloudy,180,2013-05-28 22:58:00
6:58 PM,79.0,68.9,71,29.59,10.0,South,20.7,26.5,N/A,,Clear,180,2013-05-28 23:58:00
7:58 PM,78.3,67.5,69,29.62,10.0,South,19.6,29.9,N/A,,Partly Cloudy,190,2013-05-29 00:58:00
8:58 PM,77.9,67.1,69,29.65,10.0,South,16.1,24.2,N/A,,Scattered Clouds,190,2013-05-29 01:58:00
9:58 PM,76.6,66.0,70,29.67,5.0,South,17.3,28.8,N/A,,Haze,190,2013-05-29 02:58:00
10:58 PM,75.9,66.4,72,29.66,10.0,South,19.6,28.8,N/A,,Clear,170,2013-05-29 03:58:00
11:58 PM,75.2,66.7,75,29.65,10.0,South,19.6,31.1,N/A,,Clear,170,2013-05-29 04:58:00